Satellite: ASTRA 1B
Catalog number: 21139
Epoch time:      103023.00000000
Element set:     158 
Inclination:        0.0122 deg
RA of node:       319.8851 deg
Eccentricity:    0.0002995
Arg of perigee:    65.1991 deg
Mean anomaly:     116.0459 deg
Mean motion:    1.00273184 rev/day
Decay rate:    1.2399E-006 rev/day^2
Epoch rev:            3192
Checksum:              241

Satellite: METEOSAT 5 (MO
Catalog number: 21140
Epoch time:      103021.67567715
Element set:     685 
Inclination:        5.5662 deg
RA of node:        70.1382 deg
Eccentricity:    0.0001525
Arg of perigee:   135.1810 deg
Mean anomaly:     221.4709 deg
Mean motion:    1.00267865 rev/day
Decay rate:    2.3999E-007 rev/day^2
Epoch rev:            4576
Checksum:              291

Satellite: NOAA 12
Catalog number: 21263
Epoch time:      103024.13724299
Element set:     942 
Inclination:       98.6235 deg
RA of node:        14.2002 deg
Eccentricity:    0.0013713
Arg of perigee:    94.5016 deg
Mean anomaly:     265.7729 deg
Mean motion:   14.25063509 rev/day
Decay rate:    3.9900E-006 rev/day^2
Epoch rev:           60759
Checksum:              295

Satellite: OSCAR 22 (UoSA
Catalog number: 21575
Epoch time:      103024.20024641
Element set:     708 
Inclination:       98.1383 deg
RA of node:        17.6048 deg
Eccentricity:    0.0006802
Arg of perigee:   204.0895 deg
Mean anomaly:     155.9974 deg
Mean motion:   14.39136829 rev/day
Decay rate:    4.1100E-006 rev/day^2
Epoch rev:           60463
Checksum:              301

Satellite: METEOR 3-5
Catalog number: 21655
Epoch time:      103022.93224444
Element set:     526 
Inclination:       82.5536 deg
RA of node:        57.6847 deg
Eccentricity:    0.0012389
Arg of perigee:   267.1675 deg
Mean anomaly:      92.8028 deg
Mean motion:   13.16978989 rev/day
Decay rate:    5.1000E-007 rev/day^2
Epoch rev:           54997
Checksum:              348

Satellite: UARS
Catalog number: 21701
Epoch time:      103024.08601755
Element set:     807 
Inclination:       56.9797 deg
RA of node:       135.1879 deg
Eccentricity:    0.0005634
Arg of perigee:   116.8721 deg
Mean anomaly:     243.2891 deg
Mean motion:   15.02805492 rev/day
Decay rate:    1.0939E-005 rev/day^2
Epoch rev:           62188
Checksum:              420

Satellite: EUTELSAT 2-F3
Catalog number: 21803
Epoch time:      103023.99834492
Element set:     511 
Inclination:        2.5365 deg
RA of node:        89.3767 deg
Eccentricity:    0.0008952
Arg of perigee:   185.1998 deg
Mean anomaly:     229.2611 deg
Mean motion:    1.00271200 rev/day
Decay rate:    1.3100E-006 rev/day^2
Epoch rev:            3674
Checksum:              287

Satellite: INMARSAT 2-F3
Catalog number: 21814
Epoch time:      103022.49891601
Element set:     605 
Inclination:        1.6910 deg
RA of node:        56.9770 deg
Eccentricity:    0.0002531
Arg of perigee:   250.5721 deg
Mean anomaly:     211.5158 deg
Mean motion:    1.00276413 rev/day
Decay rate:    1.1500E-006 rev/day^2
Epoch rev:            4062
Checksum:              243

Satellite: INMARSAT 2-F4
Catalog number: 21940
Epoch time:      103020.34919135
Element set:     565 
Inclination:        2.3833 deg
RA of node:        17.7541 deg
Eccentricity:    0.0002167
Arg of perigee:   249.3231 deg
Mean anomaly:      86.9060 deg
Mean motion:    1.00267500 rev/day
Decay rate:   -3.4499E-006 rev/day^2
Epoch rev:            3938
Checksum:              281

Satellite: EUTELSAT 2-F4
Catalog number: 22028
Epoch time:      103023.99554399
Element set:     321 
Inclination:        1.6548 deg
RA of node:        92.9483 deg
Eccentricity:    0.0006003
Arg of perigee:   211.6235 deg
Mean anomaly:     164.4197 deg
Mean motion:    1.00272238 rev/day
Decay rate:   -9.6999E-007 rev/day^2
Epoch rev:            3152
Checksum:              303

Satellite: OSCAR 23 (KITS
Catalog number: 22077
Epoch time:      103023.21253889
Element set:     149 
Inclination:       66.0824 deg
RA of node:       180.9211 deg
Eccentricity:    0.0015108
Arg of perigee:   280.6672 deg
Mean anomaly:      79.2647 deg
Mean motion:   12.86407886 rev/day
Decay rate:   -3.7000E-007 rev/day^2
Epoch rev:           49091
Checksum:              312

Satellite: ASTRA 1C
Catalog number: 22653
Epoch time:      103023.00000000
Element set:     784 
Inclination:        0.0122 deg
RA of node:       319.8851 deg
Eccentricity:    0.0002995
Arg of perigee:    65.1991 deg
Mean anomaly:     116.0096 deg
Mean motion:    1.00273184 rev/day
Decay rate:    1.2299E-006 rev/day^2
Epoch rev:            3062
Checksum:              240

Satellite: METEOR 2-21
Catalog number: 22782
Epoch time:      103023.86121169
Element set:     499 
Inclination:       82.5447 deg
RA of node:       235.2850 deg
Eccentricity:    0.0023593
Arg of perigee:    59.6632 deg
Mean anomaly:     300.6842 deg
Mean motion:   13.83529933 rev/day
Decay rate:    1.1999E-007 rev/day^2
Epoch rev:           47453
Checksum:              335

Satellite: KITSAT B
Catalog number: 22825
Epoch time:      103023.91432158
Element set:     469 
Inclination:       98.2775 deg
RA of node:        54.9159 deg
Eccentricity:    0.0008404
Arg of perigee:   342.5186 deg
Mean anomaly:      17.5706 deg
Mean motion:   14.28934174 rev/day
Decay rate:    1.9599E-006 rev/day^2
Epoch rev:           48621
Checksum:              333

Satellite: POSAT 1
Catalog number: 22826
Epoch time:      103022.61836989
Element set:     310 
Inclination:       98.2777 deg
RA of node:        54.7876 deg
Eccentricity:    0.0009241
Arg of perigee:   344.7678 deg
Mean anomaly:      15.3221 deg
Mean motion:   14.29155908 rev/day
Decay rate:    2.4799E-006 rev/day^2
Epoch rev:           48607
Checksum:              343

Satellite: ITAMSAT
Catalog number: 22828
Epoch time:      103024.49499975
Element set:     409 
Inclination:       98.2744 deg
RA of node:        56.8355 deg
Eccentricity:    0.0009822
Arg of perigee:   317.7694 deg
Mean anomaly:      42.2736 deg
Mean motion:   14.29500208 rev/day
Decay rate:    2.0099E-006 rev/day^2
Epoch rev:           45454
Checksum:              337

Satellite: EYESAT A
Catalog number: 22829
Epoch time:      103023.59894120
Element set:     432 
Inclination:       98.2763 deg
RA of node:        56.5763 deg
Eccentricity:    0.0009653
Arg of perigee:   321.2149 deg
Mean anomaly:      38.8330 deg
Mean motion:   14.29755268 rev/day
Decay rate:    3.0500E-006 rev/day^2
Epoch rev:           48634
Checksum:              312

Satellite: METEOSAT 6
Catalog number: 22912
Epoch time:      103023.98939816
Element set:     649 
Inclination:        2.6174 deg
RA of node:        82.5118 deg
Eccentricity:    0.0000875
Arg of perigee:   247.4382 deg
Mean anomaly:     158.4585 deg
Mean motion:    1.00274931 rev/day
Decay rate:    6.3999E-007 rev/day^2
Epoch rev:            3204
Checksum:              438

Satellite: GOES 8
Catalog number: 23051
Epoch time:      103021.37144942
Element set:     570 
Inclination:        0.2308 deg
RA of node:       105.6780 deg
Eccentricity:    0.0002388
Arg of perigee:   196.5117 deg
Mean anomaly:     236.1092 deg
Mean motion:    1.00257460 rev/day
Decay rate:   -2.4099E-006 rev/day^2
Epoch rev:            3952
Checksum:              269

Satellite: ASTRA 1D
Catalog number: 23331
Epoch time:      103021.80796854
Element set:     805 
Inclination:        0.0460 deg
RA of node:       213.1778 deg
Eccentricity:    0.0002099
Arg of perigee:    94.6320 deg
Mean anomaly:     127.9950 deg
Mean motion:    1.00274877 rev/day
Decay rate:    1.4400E-006 rev/day^2
Epoch rev:            3059
Checksum:              272

Satellite: RADIO ROSTO
Catalog number: 23439
Epoch time:      103023.57288933
Element set:     677 
Inclination:       64.8169 deg
RA of node:        83.5204 deg
Eccentricity:    0.0147575
Arg of perigee:   120.3315 deg
Mean anomaly:     241.2220 deg
Mean motion:   11.27547677 rev/day
Decay rate:   -5.1000E-007 rev/day^2
Epoch rev:           33266
Checksum:              295

Satellite: NOAA 14
Catalog number: 23455
Epoch time:      103024.12924585
Element set:     496 
Inclination:       99.1878 deg
RA of node:        42.0272 deg
Eccentricity:    0.0008726
Arg of perigee:   304.0298 deg
Mean anomaly:      56.0041 deg
Mean motion:   14.13288107 rev/day
Decay rate:    1.9900E-006 rev/day^2
Epoch rev:           41588
Checksum:              308

Satellite: HIMAWARI 5 (GM
Catalog number: 23522
Epoch time:      103023.17601888
Element set:     68 
Inclination:        1.6903 deg
RA of node:        83.2670 deg
Eccentricity:    0.0000623
Arg of perigee:    92.1178 deg
Mean anomaly:     150.2043 deg
Mean motion:    1.00266748 rev/day
Decay rate:   -2.7799E-006 rev/day^2
Epoch rev:            2862
Checksum:              288

Satellite: HOT BIRD 1
Catalog number: 23537
Epoch time:      103013.80550721
Element set:     533 
Inclination:        0.0070 deg
RA of node:       236.2796 deg
Eccentricity:    0.0008090
Arg of perigee:    86.9786 deg
Mean anomaly:      92.5958 deg
Mean motion:    1.00275871 rev/day
Decay rate:    1.0700E-006 rev/day^2
Epoch rev:            2861
Checksum:              279

Satellite: GOES 9
Catalog number: 23581
Epoch time:      103023.50271815
Element set:     485 
Inclination:        0.3407 deg
RA of node:       277.1085 deg
Eccentricity:    0.0009716
Arg of perigee:   237.0409 deg
Mean anomaly:      13.2476 deg
Mean motion:    1.00032846 rev/day
Decay rate:    1.1299E-006 rev/day^2
Epoch rev:            2810
Checksum:              376

